LRSB Weather Reports


time (UTC)temp
C
wind
direction
speed
KPH
gust
KPH
rain 1hr
cm
rain 24hr
cm
rain mn
cm
humidity
%
barometer
mb
20260507103311 23 300 14.5 0.0 0.00 0.00 0.00 44 1014.0
20260507101811 25 310 9.7 0.0 0.00 0.00 0.00 44 1014.0
20260507100311 25 310 9.7 0.0 0.00 0.00 0.00 44 1014.0
20260507094811 23 310 16.1 0.0 0.00 0.00 0.00 44 1014.0
20260507093311 23 310 16.1 0.0 0.00 0.00 0.00 44 1014.0
20260507091812 23 300 8.0 0.0 0.00 0.00 0.00 41 1014.0
20260507090311 23 300 8.0 0.0 0.00 0.00 0.00 41 1014.0
20260507084811 22 250 9.7 0.0 0.00 0.00 0.00 50 1014.0
20260507083311 22 250 9.7 0.0 0.00 0.00 0.00 50 1014.0
20260507081811 21 250 12.9 0.0 0.00 0.00 0.00 60 1014.0
20260507080312 21 250 12.9 0.0 0.00 0.00 0.00 60 1014.0
20260507074811 21 280 4.8 0.0 0.00 0.00 0.00 57 1014.0
20260507073311 21 280 4.8 0.0 0.00 0.00 0.00 57 1014.0
20260507071811 21 270 8.0 0.0 0.00 0.00 0.00 57 1014.0
20260507070311 21 230 4.8 0.0 0.00 0.00 0.00 57 1014.0
20260507064811 20 230 4.8 0.0 0.00 0.00 0.00 60 1014.0
20260507063311 20 230 4.8 0.0 0.00 0.00 0.00 60 1014.0
20260507061823 18 140 4.8 0.0 0.00 0.00 0.00 56 1014.0
20260507060311 18 140 4.8 0.0 0.00 0.00 0.00 56 1014.0
20260507054811 17 1.6 0.0 0.00 0.00 0.00 60 1014.0
20260507053318 17 1.6 0.0 0.00 0.00 0.00 60 1014.0
20260507051811 13 3.2 0.0 0.00 0.00 0.00 77 1014.0
20260507050311 13 3.2 0.0 0.00 0.00 0.00 77 1014.0
20260507044811 12 3.2 0.0 0.00 0.00 0.00 88 1014.0
20260507043311 12 3.2 0.0 0.00 0.00 0.00 88 1014.0
20260507041811 11 230 4.8 0.0 0.00 0.00 0.00 82 1014.0
20260507040311 11 230 4.8 0.0 0.00 0.00 0.00 82 1014.0
20260507034811 8 240 4.8 0.0 0.00 0.00 0.00 87 1014.0
20260507033310 8 240 4.8 0.0 0.00 0.00 0.00 87 1014.0
20260507031811 10 1.6 0.0 0.00 0.00 0.00 82 1014.0
20260507030311 10 1.6 0.0 0.00 0.00 0.00 82 1014.0
20260507024811 15 100 8.0 0.0 0.00 0.00 0.00 63 1014.0
20260507023311 15 100 8.0 0.0 0.00 0.00 0.00 63 1014.0
20260507021811 12 70 1.6 0.0 0.00 0.00 0.00 72 1014.0
20260507020311 12 70 1.6 0.0 0.00 0.00 0.00 72 1014.0
20260507014811 16 90 8.0 0.0 0.00 0.00 0.00 59 1014.0
20260507013310 16 90 8.0 0.0 0.00 0.00 0.00 59 1014.0
20260507011811 16 120 12.9 0.0 0.00 0.00 0.00 59 1013.0
20260507010311 16 120 12.9 0.0 0.00 0.00 0.00 59 1013.0
20260507004810 18 160 12.9 0.0 0.00 0.00 0.00 49 1013.0
20260507003311 18 160 12.9 0.0 0.00 0.00 0.00 49 1013.0
20260507001811 18 170 12.9 0.0 0.00 0.00 0.00 49 1013.0
20260507000313 18 170 12.9 0.0 0.00 0.00 0.00 49 1013.0
20260506234811 17 190 12.9 0.0 0.00 0.00 0.00 52 1014.0
20260506233311 17 190 12.9 0.0 0.00 0.00 0.00 52 1014.0
20260506231812 17 180 9.7 0.0 0.00 0.00 0.00 52 1014.0
20260506230311 17 180 9.7 0.0 0.00 0.00 0.00 52 1014.0
20260506224810 17 180 11.3 0.0 0.00 0.00 0.00 56 1014.0
20260506223311 17 180 11.3 0.0 0.00 0.00 0.00 56 1014.0
20260506221811 18 180 12.9 0.0 0.00 0.00 0.00 49 1014.0
20260506220310 18 180 12.9 0.0 0.00 0.00 0.00 49 1014.0
20260506214827 20 190 14.5 0.0 0.00 0.00 0.00 46 1014.0
20260506213311 20 190 14.5 0.0 0.00 0.00 0.00 46 1014.0
20260506211811 17 200 11.3 0.0 0.00 0.00 0.00 49 1013.0
20260506210310 17 200 11.3 0.0 0.00 0.00 0.00 49 1013.0
20260506204811 13 240 4.8 0.0 0.00 0.00 0.00 59 1013.0
20260506203311 13 240 4.8 0.0 0.00 0.00 0.00 59 1013.0
20260506201811 16 1.6 0.0 0.00 0.00 0.00 52 1013.0
20260506200311 16 1.6 0.0 0.00 0.00 0.00 52 1013.0
20260506194830 17 230 4.8 0.0 0.00 0.00 0.00 45 1013.0
20260506193334 17 230 4.8 0.0 0.00 0.00 0.00 45 1013.0
20260506191812 17 180 8.0 0.0 0.00 0.00 0.00 43 1013.0
20260506190311 17 180 8.0 0.0 0.00 0.00 0.00 43 1013.0
20260506184816 18 250 4.8 0.0 0.00 0.00 0.00 43 1013.0
20260506183311 18 250 4.8 0.0 0.00 0.00 0.00 43 1013.0
20260506181811 18 240 4.8 0.0 0.00 0.00 0.00 49 1012.0
20260506180311 18 240 4.8 0.0 0.00 0.00 0.00 49 1012.0
20260506174811 21 270 8.0 0.0 0.00 0.00 0.00 46 1012.0
20260506173311 21 270 8.0 0.0 0.00 0.00 0.00 46 1012.0
20260506171811 22 230 11.3 0.0 0.00 0.00 0.00 38 1011.0
20260506170311 22 230 11.3 0.0 0.00 0.00 0.00 38 1011.0
20260506164811 25 230 14.5 0.0 0.00 0.00 0.00 32 1011.0
20260506163311 25 230 14.5 0.0 0.00 0.00 0.00 32 1011.0
20260506161811 22 280 11.3 0.0 0.00 0.00 0.00 44 1011.0
20260506160311 22 280 11.3 0.0 0.00 0.00 0.00 44 1011.0
20260506154812 26 3.2 0.0 0.00 0.00 0.00 28 1011.0
20260506153311 26 3.2 0.0 0.00 0.00 0.00 28 1011.0
20260506151811 26 160 14.5 0.0 0.00 0.00 0.00 28 1011.0
20260506150317 26 160 14.5 0.0 0.00 0.00 0.00 28 1011.0
20260506144811 25 130 12.9 0.0 0.00 0.00 0.00 28 1011.0
20260506143322 25 130 12.9 0.0 0.00 0.00 0.00 28 1011.0
20260506141811 27 130 17.7 0.0 0.00 0.00 0.00 24 1011.0
20260506140425 27 130 17.7 0.0 0.00 0.00 0.00 24 1011.0
20260506134836 27 140 17.7 0.0 0.00 0.00 0.00 23 1011.0
20260506133311 27 140 17.7 0.0 0.00 0.00 0.00 23 1011.0
20260506131811 27 110 14.5 0.0 0.00 0.00 0.00 23 1011.0
20260506130320 27 110 14.5 0.0 0.00 0.00 0.00 23 1011.0
20260506124811 27 8.0 0.0 0.00 0.00 0.00 23 1012.0
20260506123311 27 8.0 0.0 0.00 0.00 0.00 23 1012.0
20260506121811 26 110 11.3 0.0 0.00 0.00 0.00 24 1012.0
20260506120311 26 110 11.3 0.0 0.00 0.00 0.00 24 1012.0
20260506114811 26 130 14.5 0.0 0.00 0.00 0.00 23 1012.0
20260506113311 26 130 14.5 0.0 0.00 0.00 0.00 23 1012.0
20260506111811 26 20 11.3 0.0 0.00 0.00 0.00 28 1013.0
20260506110311 26 20 11.3 0.0 0.00 0.00 0.00 28 1013.0
20260506104811 25 110 11.3 0.0 0.00 0.00 0.00 28 1013.0